Weather reports worldwide

Advertisment
Strathallan, United Kingdom (3144): temperature & dewpoint: 16.06.2018 19:00:00 - 22.06.2018 19:00:00 (BST)Strathallan, United Kingdom (3144): temperature -20cm & temperature -100cm: 16.06.2018 19:00:00 - 22.06.2018 19:00:00 (BST)Strathallan, United Kingdom (3144): wind speed & gusts: 16.06.2018 19:00:00 - 22.06.2018 19:00:00 (BST)Strathallan, United Kingdom (3144): wind direction: 16.06.2018 19:00:00 - 22.06.2018 19:00:00 (BST)Strathallan, United Kingdom (3144): reduced air pressure: 16.06.2018 19:00:00 - 22.06.2018 19:00:00 (BST)Strathallan, United Kingdom (3144): visibility: 16.06.2018 19:00:00 - 22.06.2018 19:00:00 (BST)Strathallan, United Kingdom (3144): precipitation: 16.06.2018 19:00:00 - 22.06.2018 19:00:00 (BST)
Date & Time tt [°C] td [°C] tt -20cm [°C] tt -100cm [°C] ff [km/h] ff [kn] fx [km/h] fx [kn] dd ppp [hPa] vv [km] rr [mm]
22.06.2018 19:00:00 16,9 8,6 - - 13 7 - - WSW 1028,8 50 0,0
22.06.2018 18:00:00 18,3 9,3 - - 21 11 - - W 1028,9 45 0,0
22.06.2018 17:00:00 18,7 10,7 - - 21 11 - - W 1029,2 30 0,0
22.06.2018 16:00:00 18,7 10,6 - - 16 9 - - WNW 1029,4 28 0,0
22.06.2018 15:00:00 18,1 9,4 - - 16 9 - - W 1029,8 50 0,0
22.06.2018 14:00:00 17,8 9,3 - - 13 7 - - WSW 1030,3 30 0,0
22.06.2018 13:00:00 17,3 10,2 - - 9 5 - - WSW 1031,0 50 0,0
22.06.2018 12:00:00 15,3 7,4 - - 13 7 - - W 1031,4 30 0,0
22.06.2018 11:00:00 15,0 7,7 - - 11 6 - - WSW 1031,1 40 0,0
22.06.2018 10:00:00 13,9 6,8 14,7 13,2 13 7 - - SW 1031,2 40 0,0
22.06.2018 09:00:00 12,7 5,5 - - 13 7 - - SW 1031,3 50 0,0
22.06.2018 08:00:00 10,9 6,5 - - 5 3 - - SW 1031,5 45 0,0
22.06.2018 07:00:00 9,7 5,6 - - 15 8 - - WSW 1031,3 40 0,0
22.06.2018 06:00:00 8,4 4,7 - - 8 4 - - SW 1030,9 35 0,0
22.06.2018 05:00:00 9,5 3,9 - - 9 5 - - WSW 1031,2 45 0,0
22.06.2018 04:00:00 9,4 3,7 - - 5 3 - - SW 1030,8 50 0,0
22.06.2018 03:00:00 8,9 3,9 - - 8 4 - - WSW 1031,1 50 0,0
22.06.2018 02:00:00 9,7 3,9 - - 8 4 - - SSW 1031,1 50 0,0
22.06.2018 01:00:00 9,4 4,2 - - 13 7 - - WSW 1031,0 40 0,0
22.06.2018 00:00:00 9,5 4,7 - - 9 5 - - WSW 1031,1 45 0,0
21.06.2018 23:00:00 9,7 5,0 - - 4 2 - - SW 1030,5 50 0,0
21.06.2018 22:00:00 12,0 5,0 - - 4 2 - - NW 1029,9 50 0,0
21.06.2018 21:00:00 14,3 4,3 - - 13 7 - - WNW 1029,1 45 0,0
21.06.2018 20:00:00 15,8 5,4 - - 11 6 - - WNW 1028,8 50 0,0
21.06.2018 19:00:00 15,5 3,4 - - 22 12 - - NW 1028,4 40 0,0
21.06.2018 18:00:00 16,5 3,5 - - 22 12 - - WNW 1027,7 50 0,0
21.06.2018 17:00:00 17,1 5,0 - - 21 11 - - NW 1027,5 45 0,0
21.06.2018 16:00:00 16,7 4,1 - - 21 11 - - NW 1027,0 22 0,0
21.06.2018 15:00:00 16,3 5,3 - - 21 11 - - W 1026,7 45 0,0
21.06.2018 14:00:00 16,1 6,2 - - 24 13 - - WNW 1026,6 50 0,0
21.06.2018 13:00:00 15,5 5,0 - - 18 10 - - WNW 1026,0 35 0,0
21.06.2018 12:00:00 14,8 4,4 - - 22 12 - - W 1025,8 40 0,0
21.06.2018 11:00:00 13,8 4,2 - - 22 12 - - W 1025,3 50 0,0
21.06.2018 10:00:00 11,5 5,0 14,4 13,2 22 12 - - W 1025,1 50 0,0
21.06.2018 09:00:00 11,0 5,1 - - 13 7 - - W 1024,5 50 0,0
21.06.2018 08:00:00 10,0 4,8 - - 11 6 - - SW 1024,1 50 0,0
21.06.2018 07:00:00 11,0 4,6 - - 11 6 - - W 1023,2 40 0,0
21.06.2018 06:00:00 7,2 4,6 - - 8 4 - - WSW 1022,5 50 0,0
21.06.2018 05:00:00 6,2 3,8 - - 2 1 - - W 1021,5 50 0,0
21.06.2018 04:00:00 7,4 3,6 - - 8 4 - - SSW 1021,0 50 0,0
21.06.2018 03:00:00 8,3 3,9 - - 15 8 - - W 1019,8 50 0,0
21.06.2018 02:00:00 8,2 4,9 - - 11 6 - - W 1019,0 50 0,0
21.06.2018 01:00:00 6,7 5,1 - - 5 3 - - SSW 1018,3 50 0,0
21.06.2018 00:00:00 7,2 5,7 - - 15 8 - - WSW 1018,0 50 0,0
20.06.2018 23:00:00 8,4 6,6 - - 11 6 - - SW 1017,8 50 1,2
20.06.2018 22:00:00 9,7 6,1 - - 21 11 - - WSW 1017,4 25 0,0
20.06.2018 21:00:00 11,2 5,4 - - 21 11 - - WSW 1016,9 50 0,0
20.06.2018 20:00:00 12,2 5,8 - - 18 10 - - SW 1017,0 50 0,0
20.06.2018 19:00:00 12,7 5,0 - - 21 11 - - W 1017,4 45 0,0
20.06.2018 18:00:00 14,5 4,6 - - 26 14 - - W 1017,2 40 0,0
20.06.2018 17:00:00 14,4 4,4 - - 24 13 - - W 1016,9 40 0,0
20.06.2018 16:00:00 15,3 7,3 - - 24 13 - - W 1016,8 26 0,0
20.06.2018 15:00:00 15,6 6,4 - - 13 7 - - WNW 1016,4 35 0,0
20.06.2018 14:00:00 15,9 6,9 - - 11 6 - - NW 1016,0 45 0,0
20.06.2018 13:00:00 14,7 8,0 - - 8 4 - - NW 1015,8 45 0,0
20.06.2018 12:00:00 14,2 7,1 - - 16 9 - - WNW 1015,2 50 0,0
20.06.2018 11:00:00 14,5 9,4 - - 18 10 - - NW 1014,2 50 0,0
20.06.2018 10:00:00 13,6 8,6 14,5 13,4 13 7 - - WNW 1013,1 50 0,0
20.06.2018 09:00:00 11,8 10,8 - - 5 3 - - SW 1011,9 50 0,0
20.06.2018 08:00:00 10,4 10,4 - - 5 3 - - WNW 1011,2 6 0,2
20.06.2018 07:00:00 9,7 9,7 - - 4 2 - - N 1010,3 12 1,6
20.06.2018 06:00:00 9,3 9,3 - - 8 4 - - N 1009,8 2,8 0,6
20.06.2018 05:00:00 9,2 9,2 - - 2 1 - - ENE 1009,8 6 0,4
20.06.2018 04:00:00 9,3 9,3 - - 5 3 - - NNE 1010,6 30 3,6
20.06.2018 03:00:00 9,4 9,4 - - 4 2 - - NE 1011,3 3,3 3,0
20.06.2018 02:00:00 9,3 9,2 - - 4 2 - - NE 1011,8 6 1,4
20.06.2018 01:00:00 9,3 9,2 - - 9 5 - - E 1012,7 9 2,0
20.06.2018 00:00:00 9,3 9,0 - - 4 2 - - E 1013,7 6 0,4
19.06.2018 23:00:00 9,3 8,3 - - 4 2 - - E 1014,6 12 0,6
19.06.2018 22:00:00 10,5 9,4 - - 4 2 - - N 1015,1 18 0,6
19.06.2018 21:00:00 11,2 10,0 - - 4 2 - - ESE 1015,6 9 0,8
19.06.2018 20:00:00 11,6 9,5 - - 2 1 - - SSW 1015,8 21 0,2
19.06.2018 19:00:00 12,4 8,2 - - 13 7 - - SW 1016,7 27 0,0
19.06.2018 18:00:00 12,8 7,4 - - 13 7 - - SW 1016,9 18 0,0
19.06.2018 17:00:00 13,5 6,5 - - 16 9 - - SW 1017,5 35 0,0
19.06.2018 16:00:00 13,1 6,4 - - 21 11 - - SW 1017,7 27 0,0
19.06.2018 15:00:00 13,4 7,2 - - 28 15 - - SW 1018,0 26 0,0
19.06.2018 14:00:00 14,3 7,3 - - 24 13 - - SW 1017,4 28 0,0
19.06.2018 13:00:00 13,4 7,2 - - 24 13 - - SW 1018,0 19 0,0
19.06.2018 12:00:00 13,9 5,8 - - 28 15 - - SW 1017,6 30 0,0
19.06.2018 11:00:00 14,8 8,3 - - 26 14 - - SW 1017,4 40 0,0
19.06.2018 10:00:00 14,1 6,4 14,4 13,4 24 13 - - SW 1017,1 25 0,0
19.06.2018 09:00:00 12,7 6,8 - - 21 11 - - SW 1016,6 35 0,0
19.06.2018 08:00:00 11,7 6,0 - - 21 11 - - SSW 1016,5 45 0,0
19.06.2018 07:00:00 10,4 5,7 - - 18 10 - - WSW 1015,8 30 0,0
19.06.2018 06:00:00 9,5 5,7 - - 15 8 - - SW 1015,2 30 0,0
19.06.2018 05:00:00 9,4 6,0 - - 18 10 - - SW 1014,8 26 0,0
19.06.2018 04:00:00 9,5 5,6 - - 22 12 - - SW 1014,4 24 0,0
19.06.2018 03:00:00 10,1 5,2 - - 28 15 - - SW 1013,9 30 0,0
19.06.2018 02:00:00 9,9 4,8 - - 26 14 - - SW 1013,5 29 0,0
19.06.2018 01:00:00 9,8 4,3 - - 22 12 - - SW 1013,4 30 0,0
19.06.2018 00:00:00 9,7 4,3 - - 22 12 - - SW 1013,2 30 0,0
18.06.2018 23:00:00 10,2 4,6 - - 18 10 - - SW 1012,9 30 0,0
18.06.2018 22:00:00 11,3 3,8 - - 26 14 55 30 WSW 1012,0 45 0,0
18.06.2018 21:00:00 12,1 6,3 - - 28 15 52 28 WSW 1011,5 35 0,0
18.06.2018 20:00:00 13,4 5,6 - - 34 18 59 32 WSW 1010,7 45 0,0
18.06.2018 19:00:00 14,6 5,7 - - 31 17 57 31 WSW 1009,9 45 0,0
18.06.2018 18:00:00 14,7 7,1 - - 29 16 48 26 WSW 1009,9 35 0,0
18.06.2018 17:00:00 15,6 7,7 - - 28 15 61 33 WSW 1009,8 29 0,0
18.06.2018 16:00:00 16,6 8,1 - - 37 20 70 38 WSW 1009,8 40 0,0
18.06.2018 15:00:00 16,0 6,9 - - 35 19 59 32 SW 1010,1 24 0,0
18.06.2018 14:00:00 16,2 9,3 - - 28 15 55 30 SW 1010,3 21 0,0
18.06.2018 13:00:00 13,8 8,5 - - 29 16 48 26 SW 1010,7 26 0,0
18.06.2018 12:00:00 13,2 8,7 - - 28 15 - - SW 1011,0 25 0,0
18.06.2018 11:00:00 14,4 8,7 - - 28 15 - - SW 1010,9 22 0,0
18.06.2018 10:00:00 13,2 8,4 14,7 13,5 18 10 - - SW 1010,6 16 0,0
18.06.2018 09:00:00 12,4 8,8 - - 18 10 - - SW 1010,5 23 0,0
18.06.2018 08:00:00 11,8 8,6 - - 15 8 - - SSW 1010,1 19 0,0
18.06.2018 07:00:00 12,0 8,6 - - 18 10 - - SW 1009,7 20 0,0
18.06.2018 06:00:00 11,5 7,9 - - 16 9 - - SW 1009,4 27 0,0
18.06.2018 05:00:00 11,4 8,9 - - 16 9 - - SW 1009,0 35 0,0
18.06.2018 04:00:00 11,7 9,4 - - 24 13 - - WSW 1008,4 40 0,0
18.06.2018 03:00:00 11,8 9,5 - - 26 14 - - SW 1008,2 50 0,0
18.06.2018 02:00:00 12,3 10,1 - - 22 12 48 26 SW 1007,9 45 0,0
18.06.2018 01:00:00 13,0 10,9 - - 21 11 - - WSW 1007,8 50 0,0
18.06.2018 00:00:00 13,2 11,4 - - 21 11 - - SW 1007,6 50 0,0
17.06.2018 23:00:00 13,3 11,9 - - 24 13 - - SW 1007,2 50 0,0
17.06.2018 22:00:00 13,8 12,5 - - 18 10 - - SW 1007,5 50 0,0
17.06.2018 21:00:00 13,2 12,8 - - 2 1 - - NW 1007,2 5 0,0
17.06.2018 20:00:00 13,3 12,1 - - 8 4 - - W 1007,4 23 0,0
17.06.2018 19:00:00 13,4 12,1 - - 13 7 - - SW 1007,6 8 0,0
17.06.2018 18:00:00 14,3 10,2 - - 13 7 - - WSW 1007,9 30 0,0
17.06.2018 17:00:00 15,2 10,1 - - 11 6 - - SW 1008,1 50 0,0
17.06.2018 16:00:00 15,1 9,8 - - 15 8 - - SW 1008,2 50 0,0
17.06.2018 15:00:00 15,5 8,8 - - 16 9 - - SSW 1008,5 45 0,0
17.06.2018 14:00:00 16,1 11,7 - - 9 5 - - SW 1008,7 30 0,0
17.06.2018 13:00:00 14,9 9,8 - - 16 9 - - SW 1008,8 40 0,0
17.06.2018 12:00:00 14,3 10,2 - - 18 10 - - SW 1009,1 45 0,0
17.06.2018 11:00:00 13,2 10,1 - - 15 8 - - SW 1009,3 27 0,0
17.06.2018 10:00:00 12,6 10,1 14,5 13,5 16 9 - - SW 1009,2 26 0,0
17.06.2018 09:00:00 11,4 9,5 - - 16 9 - - SW 1009,1 30 0,0
17.06.2018 08:00:00 10,4 8,5 - - 13 7 - - WSW 1009,2 40 0,0
17.06.2018 07:00:00 9,7 7,8 - - 9 5 - - W 1009,0 30 0,0
17.06.2018 06:00:00 8,8 7,0 - - 13 7 - - WSW 1008,7 50 0,0
17.06.2018 05:00:00 7,2 6,1 - - 9 5 - - WSW 1008,6 50 0,0
17.06.2018 04:00:00 7,7 6,3 - - 13 7 - - SW 1008,4 50 0,0
17.06.2018 03:00:00 8,7 6,8 - - 15 8 - - WSW 1008,3 50 0,0
17.06.2018 02:00:00 8,5 7,0 - - 15 8 - - SW 1008,3 50 0,0
17.06.2018 01:00:00 8,0 6,5 - - 8 4 - - WSW 1008,1 50 0,0
17.06.2018 00:00:00 9,2 7,0 - - 16 9 - - SW 1007,7 50 0,0
16.06.2018 23:00:00 9,2 6,8 - - 8 4 - - SW 1007,3 50 0,0
16.06.2018 22:00:00 10,7 6,5 - - 13 7 - - WSW 1006,9 50 0,0
16.06.2018 21:00:00 13,1 7,5 - - 15 8 - - WSW 1006,4 50 0,0
16.06.2018 20:00:00 13,6 8,0 - - 21 11 - - SW 1005,8 50 0,0
16.06.2018 19:00:00 14,6 9,3 - - 18 10 - - WSW 1005,4 50 0,0

tt = temperature
td = dewpoint
tt -20cm = temperature -20cm
tt -100cm = temperature -100cm
ff = wind speed
fx = gusts
dd = wind direction
ppp = reduced air pressure
vv = visibility
rr = precipitation

Next stations